[[{"header":{"parameterUnit":"m.s-1","parameterCategory":1,"la1":30.2991,"la2":30.254,"lo1":-89.0895,"lo2":-89.0444,"dy":0.0017,"dx":0.0017,"nx":28,"ny":28,"refTime":"2025-05-15T03:00:00:Z","depth":0,"parameterNumber":2,"parameterNumberName":"U-component_of_WINDS"},"data":[0,0,0,0,0,0,0,0,0,0,0,0,0,0,0,0,0,0,0,0,0,0,0,0,0,0,0,0,0,0,0,0,0,0,0,0,0,0,0,0,0,0,0,0,0,0,0,0,0,0,0,0,0,0,0,0,0,0,1.2702,1.2703,0,1.278,1.2781,1.2782,1.2775,1.2773,1.2772,1.2771,1.2853,1.2857,1.286,0,0,0,0,0,0,0,0,0,0,0,0,0,1.2549,1.2552,1.2702,1.2703,1.2704,1.278,1.2781,1.2782,1.2775,1.2773,1.2772,1.2771,1.2852,1.2856,1.286,0,0,0,0,0,0,0,0,0,0,0,0,0,1.262,1.2553,1.2702,1.271,1.2711,1.278,1.2781,1.2782,1.2775,1.2773,1.2772,1.277,1.2851,1.2856,1.2861,1.2927,0,0,1.2876,1.2878,0,0,0,0,0,0,0,0,1.2616,1.2626,1.2707,1.2709,1.2711,1.2766,1.2757,1.2831,1.2776,1.2751,1.2771,1.2769,1.2826,1.2833,1.2851,1.2931,1.2935,1.2876,1.2879,1.2881,1.2883,0,0,0,0,0,0,0,1.2611,1.2622,1.2733,1.2709,1.2711,1.271,1.2718,1.2771,1.2798,1.2753,1.2753,1.2762,1.2826,1.2847,1.2853,1.2936,1.2876,1.2881,1.2884,1.2886,1.3075,1.3077,0,0,0,0,0,0,1.2604,1.2618,1.2731,1.2735,1.2658,1.2714,1.2723,1.275,1.2797,1.2802,1.2763,1.2761,1.2839,1.2847,1.2856,1.2938,1.2881,1.2886,1.2889,1.3073,1.3075,1.3077,0,0,0,0,0,0,1.2601,1.2614,1.2727,1.2677,1.2691,1.2718,1.2749,1.2752,1.2773,1.2805,1.281,1.2779,1.2838,1.2849,1.291,1.294,1.2888,1.2893,1.307,1.3073,1.3076,1.3101,0,0,0,0,0,0,1.2597,1.2613,1.2638,1.2677,1.2694,1.2779,1.2751,1.2755,1.2781,1.2779,1.2821,1.2826,1.2837,1.2902,1.2915,1.2946,1.2897,1.3068,1.3072,1.3075,1.3098,1.3105,1.3111,0,0,0,0,0,1.2591,1.2643,1.264,1.2653,1.2726,1.2781,1.279,1.2802,1.2783,1.2809,1.283,1.2825,1.2935,1.2908,1.2922,1.2956,1.3066,1.3071,1.3075,1.3095,1.3103,1.3111,0,0,0,0,0,0,1.2608,1.2648,1.2645,1.2711,1.2742,1.278,1.2813,1.281,1.2848,1.2845,1.2858,1.2868,1.2929,1.2948,1.2918,1.3023,1.2998,1.3006,1.3008,1.3017,1.3023,1.3018,1.2901,0,0,0,0,0,1.2619,1.266,1.2693,1.2748,1.2763,1.2785,1.281,1.2816,1.2849,1.2863,1.2888,1.2921,1.2963,1.2991,1.3031,1.31,1.311,1.313,1.3137,1.3142,1.3149,1.3187,1.3197,1.3093,1.3093,1.3092,0,0,1.2643,1.267,1.2695,1.2752,1.2777,1.2819,1.2797,1.2843,1.2875,1.287,1.2929,1.2948,1.2986,1.3051,1.3081,1.3069,1.3179,1.3148,1.3151,1.3156,1.3193,1.3202,1.3211,1.3096,1.3095,1.3095,0,0,1.2708,1.2732,1.2781,1.2806,1.2844,1.2858,1.287,1.2907,1.292,1.2978,1.2976,1.3014,1.3086,1.3114,1.3137,1.3212,1.3209,1.3224,1.3259,1.3296,1.3304,1.3311,1.3339,1.3348,1.3231,1.3231,1.3231,0,1.2733,1.2797,1.2806,1.2852,1.2878,1.2874,1.2924,1.2948,1.2998,1.3016,1.3001,1.3092,1.3117,1.3189,1.3207,1.3225,1.324,1.322,1.3302,1.3309,1.3316,1.3343,1.3353,1.3233,1.3232,1.3232,1.3232,0,1.2826,1.287,1.2905,1.2952,1.2981,1.3028,1.3046,1.3074,1.3077,1.3093,1.3153,1.3183,1.3229,1.3246,1.325,1.3319,1.331,1.3299,1.3274,1.3328,1.3353,1.3363,1.3235,1.3235,1.3234,1.3234,0,0,1.2905,1.2956,1.2969,1.299,1.3032,1.3066,1.3113,1.3158,1.3183,1.3216,1.3257,1.3318,1.3307,1.3334,1.3341,1.3373,1.3431,1.3358,1.3359,1.3371,1.3509,1.3518,1.353,1.3428,1.343,1.3432,1.3506,0,1.2976,1.3059,1.3069,1.3143,1.3184,1.3181,1.3223,1.3253,1.3269,1.3306,1.3323,1.3367,1.3349,1.3365,1.3397,1.3417,1.3459,1.3412,1.3468,1.347,1.3459,1.3543,1.3552,1.3621,1.3516,1.3517,1.3519,0,1.3069,1.3105,1.3183,1.3219,1.3236,1.3273,1.3315,1.335,1.3385,1.3394,1.3423,1.3425,1.3475,1.3447,1.3516,1.3483,1.3507,1.352,1.3523,1.353,1.3498,1.3553,1.3643,1.3654,1.3534,1.3533,1.3532,0,1.312,1.3188,1.3244,1.3262,1.3304,1.333,1.3349,1.3382,1.3408,1.3444,1.3462,1.3504,1.3527,1.356,1.3574,1.3552,1.3642,1.3615,1.3652,1.3652,1.3672,1.3671,1.3769,1.3685,1.3685,1.3685,1.3685,0,1.3198,1.3246,1.3267,1.3302,1.3356,1.3366,1.342,1.3438,1.3466,1.3505,1.3505,1.3541,1.3556,1.3595,1.3606,1.3662,1.3672,1.3682,1.3685,1.3683,1.3682,1.3699,1.3695,1.3688,1.3687,1.3687,1.3686,0,1.3265,1.328,1.3341,1.3376,1.3386,1.3424,1.3454,1.3488,1.3503,1.3551,1.3563,1.3587,1.3632,1.3649,1.3705,1.3712,1.3777,1.3775,1.3766,1.3767,1.3803,1.38,1.3916,1.3933,1.3837,1.3838,1.3839,0,1.3314,1.3351,1.339,1.3415,1.3435,1.3475,1.3502,1.3513,1.3541,1.3582,1.3611,1.3656,1.3693,1.3766,1.3789,1.3831,1.3831,1.3869,1.3838,1.3835,1.3833,1.3831,1.3835,1.3875,1.3876,1.3877,1.3878,0,1.34,1.3406,1.3444,1.3484,1.3516,1.3548,1.358,1.3601,1.3617,1.3649,1.3695,1.3723,1.3779,1.3825,1.3868,1.3888,1.3887,1.3887,1.3898,1.3898,1.3891,1.3896,1.3783,1.3885,1.3884,1.3884,1.3883,1.3883,1.3461,1.3493,1.3526,1.3568,1.3593,1.3622,1.3655,1.3674,1.3712,1.3759,1.3763,1.3813,1.3846,1.3904,1.3926,1.3966,1.3956,1.3971,1.3976,1.398,1.3983,1.3883,1.3974,1.3973,1.3973,1.3973,1.3973,0,1.3548,1.3568,1.3606,1.365,1.3684,1.3677,1.3712,1.374,1.3784,1.3815,1.385,1.3904,1.3947,1.3973,1.4016,1.4043,1.4044,1.4055,1.4053,1.4058,1.3989,1.3975,1.4054,1.4054,1.4054,1.4054,1.4054,1.4054,1.3597,1.3652,1.3662,1.373,1.375,1.3798,1.3818,1.3846,1.387,1.3929,1.3965,1.3981,1.401,1.4056,1.4095,1.4102,1.4119,1.4131,1.4136,1.4071,1.4063,1.4055,1.4043,1.4134,1.4134,1.4203,1.4203,1.4204]},{"header":{"parameterUnit":"m.s-1","parameterCategory":1,"la1":30.2991,"la2":30.254,"lo1":-89.0895,"lo2":-89.0444,"dy":0.0017,"dx":0.0017,"nx":28,"ny":28,"refTime":"2025-05-15T03:00:00:Z","depth":0,"parameterNumber":3,"parameterNumberName":"V-component_of_WINDS"},"data":[0,0,0,0,0,0,0,0,0,0,0,0,0,0,0,0,0,0,0,0,0,0,0,0,0,0,0,0,0,0,0,0,0,0,0,0,0,0,0,0,0,0,0,0,0,0,0,0,0,0,0,0,0,0,0,0,0,0,4.9048,4.9049,0,4.912,4.9121,4.9122,4.9088,4.9086,4.9084,4.9083,4.9152,4.9155,4.9159,0,0,0,0,0,0,0,0,0,0,0,0,0,4.8877,4.888,4.9048,4.9049,4.905,4.912,4.9121,4.9122,4.9088,4.9086,4.9084,4.9082,4.9151,4.9155,4.9159,0,0,0,0,0,0,0,0,0,0,0,0,0,4.895,4.8881,4.9048,4.9042,4.9042,4.912,4.9121,4.9123,4.9089,4.9086,4.9083,4.9081,4.9149,4.9154,4.916,4.9247,0,0,4.9176,4.9178,0,0,0,0,0,0,0,0,4.8946,4.8956,4.9042,4.9042,4.9043,4.9093,4.9086,4.9164,4.9089,4.9071,4.9083,4.9079,4.9134,4.914,4.916,4.925,4.9253,4.9176,4.918,4.9182,4.9183,0,0,0,0,0,0,0,4.8941,4.8953,4.9077,4.9043,4.9044,4.9034,4.9041,4.9101,4.9117,4.9072,4.907,4.9079,4.9134,4.9155,4.9161,4.9254,4.9176,4.9181,4.9184,4.9186,4.9421,4.9424,0,0,0,0,0,0,4.8937,4.8949,4.9074,4.9079,4.8987,4.9039,4.9047,4.9079,4.9116,4.9119,4.9081,4.9077,4.9147,4.9155,4.9163,4.9269,4.9182,4.9187,4.919,4.9418,4.9422,4.9425,0,0,0,0,0,0,4.8933,4.8948,4.9071,4.9013,4.9028,4.9045,4.9081,4.9082,4.9103,4.9123,4.9125,4.91,4.9145,4.9156,4.9227,4.9271,4.9189,4.9194,4.9414,4.9419,4.9423,4.9481,0,0,0,0,0,0,4.8928,4.8947,4.8981,4.9015,4.9032,4.9135,4.9084,4.9085,4.9113,4.9108,4.9141,4.9144,4.9144,4.9219,4.9232,4.9277,4.9198,4.941,4.9416,4.9422,4.9476,4.9487,4.9497,0,0,0,0,0,4.8922,4.8994,4.8983,4.8999,4.9075,4.9138,4.9148,4.9147,4.9117,4.9151,4.9164,4.9143,4.9264,4.9227,4.9241,4.9288,4.9408,4.9415,4.9421,4.9471,4.9485,4.9497,0,0,0,0,0,0,4.8963,4.8998,4.8987,4.9071,4.9102,4.9132,4.9175,4.9162,4.9201,4.9195,4.9191,4.9199,4.9273,4.9287,4.9245,4.9375,4.9331,4.9341,4.9364,4.9377,4.9388,4.9384,4.9202,0,0,0,0,0,4.8982,4.9032,4.9059,4.913,4.9147,4.9159,4.9186,4.9183,4.9214,4.9227,4.9244,4.9274,4.9319,4.9349,4.9391,4.9477,4.9484,4.9516,4.9527,4.9536,4.9545,4.9593,4.9608,4.9447,4.9447,4.9447,0,0,4.9022,4.9047,4.9078,4.9139,4.9163,4.9214,4.917,4.9224,4.9262,4.9234,4.9304,4.9318,4.9351,4.943,4.9466,4.9444,4.9591,4.9545,4.9552,4.9556,4.9602,4.9617,4.963,4.9452,4.9451,4.9451,0,0,4.912,4.9144,4.9207,4.9232,4.927,4.9277,4.9292,4.9325,4.9334,4.9403,4.9384,4.9427,4.9504,4.9529,4.9552,4.9661,4.9644,4.9674,4.9732,4.9778,4.9791,4.9802,4.9842,4.9857,4.9683,4.9683,4.9683,0,4.9164,4.9242,4.9241,4.9299,4.9326,4.9305,4.9369,4.9393,4.9441,4.946,4.9435,4.9533,4.9553,4.9639,4.9666,4.9684,4.9701,4.9671,4.9789,4.9801,4.9811,4.9849,4.9864,4.9687,4.9686,4.9686,4.9685,0,4.9295,4.9348,4.9395,4.9445,4.9477,4.9537,4.9545,4.9577,4.9572,4.9581,4.9653,4.9677,4.9724,4.9744,4.9738,4.9829,4.9815,4.979,4.9746,4.983,4.9866,4.9881,4.9692,4.969,4.9689,4.9688,0,0,4.9421,4.9471,4.9488,4.9511,4.9551,4.9592,4.965,4.9699,4.9728,4.9761,4.9811,4.9877,4.9854,4.988,4.9876,4.9917,5.0004,4.9887,4.9888,4.991,5.0107,5.0127,5.0144,4.9992,4.9995,4.9997,5.0105,0,4.9524,4.963,4.9631,4.9728,4.9778,4.9759,4.981,4.9839,4.985,4.9892,4.9903,4.9951,4.9917,4.9933,4.9972,4.9985,5.0043,4.9977,5.0038,5.004,5.0032,5.0162,5.0183,5.0284,5.0119,5.0121,5.0123,0,4.9658,4.9699,4.9802,4.9836,4.9856,4.9903,4.9948,4.9989,5.0021,5.0026,5.0056,5.0046,5.0105,5.0058,5.014,5.0095,5.0119,5.0129,5.0133,5.014,5.0088,5.0174,5.0316,5.0332,5.0145,5.0143,5.0141,0,4.9743,4.9823,4.9895,4.9915,4.9955,4.9989,5.0007,5.0037,5.0066,5.0105,5.0124,5.0168,5.0192,5.0226,5.0228,5.0193,5.0311,5.0263,5.0316,5.0317,5.0343,5.0342,5.0493,5.0356,5.0356,5.0356,5.0355,0,4.9858,4.9922,4.9934,4.9978,5.0049,5.0049,5.0119,5.0133,5.0161,5.0207,5.0191,5.0235,5.0235,5.0279,5.028,5.0348,5.0359,5.0364,5.0364,5.0367,5.0366,5.0384,5.0378,5.036,5.0359,5.0358,5.0357,0,4.9965,4.9976,5.0053,5.0086,5.0096,5.0147,5.0174,5.0216,5.0225,5.0284,5.0298,5.0312,5.0363,5.0368,5.0427,5.0428,5.0511,5.0502,5.0501,5.05,5.0553,5.0549,5.0722,5.0745,5.0592,5.0594,5.0595,0,5.0039,5.0088,5.0127,5.0158,5.0179,5.0229,5.0259,5.026,5.0293,5.0334,5.0371,5.0421,5.0461,5.0544,5.0558,5.0603,5.0597,5.0654,5.0603,5.0605,5.06,5.0597,5.0603,5.0665,5.0666,5.0668,5.0669,0,5.017,5.0173,5.0219,5.0267,5.0304,5.0341,5.0376,5.0402,5.0407,5.0444,5.0497,5.0529,5.059,5.064,5.0684,5.0701,5.0686,5.0685,5.0699,5.0703,5.0701,5.0705,5.053,5.0681,5.068,5.0679,5.0678,5.0678,5.0264,5.0307,5.0342,5.0394,5.042,5.0454,5.0496,5.0511,5.0556,5.0607,5.0604,5.0663,5.0695,5.0753,5.0774,5.0819,5.08,5.0821,5.0826,5.0832,5.0839,5.0693,5.0827,5.0826,5.0826,5.0826,5.0825,0,5.0396,5.0418,5.0465,5.0516,5.0556,5.054,5.0577,5.0612,5.0665,5.0696,5.0737,5.0798,5.0847,5.0865,5.0913,5.0945,5.094,5.0958,5.0956,5.0961,5.0852,5.0836,5.0962,5.0962,5.0962,5.0962,5.0962,5.0962,5.0469,5.0543,5.055,5.0636,5.0656,5.0716,5.0739,5.0769,5.0795,5.0865,5.0906,5.0918,5.0945,5.0994,5.1037,5.1041,5.106,5.1082,5.1083,5.0982,5.0968,5.0955,5.0939,5.1085,5.1085,5.1188,5.1189,5.119]}]]